Regional Weather Roundup
Issued by NWS

Home | Current Version | Previous Version | Graphics & Text | Print | Product List | Glossary On
Versions: 1 2 3 4 5 6 7 8 9 10 11 12 13 14 15 16 17 18 19 20 21 22 23 24 25 26 27 28 29 30 31 32 33 34 35 36 37 38 39 40 41 42 43 44 45 46 47 48 49 50
643
ASUS45 KSLC 301410
RWRUT

UTAH REGIONAL WEATHER ROUNDUP
NATIONAL WEATHER SERVICE SALT LAKE CITY UT
800 AM MDT THU MAR 30 2017

UTZ001>011-023>025-301500-

NORTHERN UTAH

CITY           SKY/WX    TMP DP  RH WIND       PRES   REMARKS
BRIGHAM CITY   CLOUDY    52  33  48 SE5       29.79F
DUGWAY         MOCLDY    47  37  65 SE6       29.78F
HILL AFB       MOCLDY    47  37  67 E6        29.79F
LOGAN          CLOUDY    46  42  86 NW3       29.79F
OGDEN          LGT RAIN  47  37  68 S9        29.78F
SALT LAKE CITY MOCLDY    51  35  54 S13       29.78F
TOOELE VALLEY  CLOUDY    50  34  53 S12G23    29.78F
WENDOVER       CLOUDY    46  41  82 NE12G18   29.78F
HEBER CITY     PTCLDY    39  34  81 E5        29.84F
WEST JORDAN    MOCLDY    50  43  75 S16G23    29.81F

$$

UTZ011>015-024>027-301500-

CENTRAL/NORTHEAST UTAH

CITY           SKY/WX    TMP DP  RH WIND       PRES   REMARKS
PROVO AIRPORT  CLOUDY    46  37  71 E5        29.83F
MOAB/CANYONLAN PTCLDY    42  26  53 CALM      29.88F
DELTA          CLOUDY    41  34  75 S5        29.84S
PRICE          PTCLDY    40  33  76 N9        29.90F WCI  34
ROOSEVELT      CLOUDY    43  34  70 CALM      29.91S
VERNAL         CLOUDY    43  34  70 CALM      29.88F

$$

UTZ013>016-019>022-027-301500-

SOUTHERN UTAH

CITY           SKY/WX    TMP DP  RH WIND       PRES   REMARKS
BRYCE CANYON   PTCLDY    29  23  78 CALM      30.00F
CEDAR CITY     PTCLDY    46  28  49 S9        29.90F
MILFORD        CLOUDY    43  32  65 SW23      29.85F
ST GEORGE      MOSUNNY   45  31  58 CALM      29.90F
HANKSVILLE     MOCLDY    39  27  60 CALM      29.91S
BLANDING       PTCLDY    40  23  50 NE5       30.03F

$$

REGIONAL REPORTS     COLORADO/ARIZONA

CITY           SKY/WX    TMP DP  RH WIND       PRES   REMARKS
CRAIG, CO      CLOUDY    35  30  82 SW5       29.92F WCI  31
GRAND JUNCTION PTSUNNY   43  29  57 SE14      29.92F
RIFLE, CO      CLOUDY    35  28  75 CALM      29.96S
MONTROSE, CO   CLOUDY    34  27  75 W5        30.00R WCI  30
CORTEZ, CO     CLOUDY    31  25  78 SE3       30.00S
COLORADO CITY    N/A     36  32  87 CALM      29.98F
PAGE, AZ       CLEAR     51  27  39 CALM      29.92F
GRAND CANYON   PTCLDY    29  25  85 CALM      30.04F
KINGMAN, AZ    MOCLDY    53  11  18 SE6       29.92S
FLAGSTAFF, AZ  CLEAR     30  23  75 CALM      30.06F

$$

REGIONAL REPORTS    NEVADA/IDAHO/WYOMING

CITY           SKY/WX    TMP DP  RH WIND       PRES   REMARKS
LAS VEGAS, NV  MOCLDY    57  30  35 CALM      29.80F
ELY, NY        CLOUDY    43  29  57 S16       29.82F
ELKO, NV       CLOUDY    43  38  82 CALM      29.75F
POCATELLO, ID  CLOUDY    44  41  89 SW14      29.78F
BURLEY, ID     CLOUDY    45  40  82 S6        29.73F
FORT BRIDGER,  CLOUDY    38  36  92 CALM      29.88S
EVANSTON, WY   CLOUDY    38  28  67 SW10      29.84F WCI  31
ROCK SPRINGS,  CLOUDY    37  33  85 E3        29.86F
KEMMERER, WY     N/A     34  32  93 CALM      29.86S

$$




USA.gov is the U.S. government's official web portal to all federal, state and local government web resources and services.